Погода в Камышине

Погода в Камышине : погода сейчас, прогноз погоды и архив. Всё, что Вы хотите узнать о погоде в Камышине!

Хотите узнать прогноз погоды в Камышине? Тогда Вам сюда: Погода в Камышине

Поиск расширенной информации на нашем сайте:

Другие новости

Новости СМИ2

Главная страница сайта

Новости сайта

03.07.2017

Напоминаем, что на нашем специализированном сайте Метеоцентр.Азия вы можете получить высокодетализированные автоматические прогнозы погоды по пунктам России, СНГ и мира в авиационном формате (включающие направление и скорость ветра, видимость, явления погоды, количество и форму облачности, нижнюю и верхнюю границу облачности).

Рекомендуем: Навгеотех - геодезическое оборудование: GPS приемники, тахеометры, нивелиры, теодолиты, рулетки..

Погода в Камышине - сегодня

Время (UTC), дата Ветер
(°,м/с) 
Видим.   Явления Облачность Т
(°С)
Тd
(°С)
f(%) Тe
(°С)
Pmin
(гПа)
dP
(гПа)
Po
(мм)
O2
(г/м3)
Тmin Tmax R s Состояние
почвы
21 14.06.18 030 (СВ) 20000 м    3/0 средняя 
[Ac trans]
+20.9 +12.1 57 +25  1011.1  0.4  748  278           
00 15.06.18 тихо ()   20000 м    4/0 средняя 
[Ac trans]
+18.4 +11.3 63 +21  1011.1  0.1  748  280           
06 15.06.18 040 (СВ) 5{10}  10 км    ясно 
+21.2 +10 49 +22  1012.4  0.4  749  278           
09 15.06.18 040 (СВ) 5{11}  20000 м    ясно 
+25.4 +10 38 +27  1012.2  749  274           
12 15.06.18 040 (СВ) 20000 м    1/1 1000 м 
[Cu hum]
+28.5 +6.8 25 +29  1011.5  -0.5  748  272           
18 15.06.18 050 (СВ) 5{11}  20000 м    5/0 средняя 
[Ac trans]
+19.2 +9.8 54 +21  1013.6  1.1  749  280           
21 15.06.18 040 (СВ) 20000 м    5/0 средняя 
[Ac trans]
+17.8 +9.1 57 +18  1014.4  0.7  750  282           
00 16.06.18 050 (СВ) 20000 м    10/0 средняя 
[Ac As]
+16.2 +10.1 67 +17  1015.2  0.7  750  284           
15 16.06.18 040 (СВ) 20000 м    ясно 
+22.2 -2.6 19 +22  1015.7  -0.3  751  280    +23.3       
18 16.06.18 010 (С) 20000 м    ясно 
+17.8 +0.1 30 +18  1017.1  1.1  752  284           
21 16.06.18 020 (С) 20000 м    ясно 
+14.8 +0.4 37 +16  1017.7  0.5  752  287           
00 17.06.18 360 (С) 20000 м    ясно 
+13.4 -0.9 37 +15  1017.7  0.1  752  289           
06 17.06.18 030 (СВ) 20000 м    ясно 
+20.3 +1.1 28 +20  1017.7  0.1  752  282           
09 17.06.18 060 (СВ) 20000 м    ясно 
+22.8 -0.6 21 +23  1016.7  -0.9  752  280           
12 17.06.18 070 (В) 20000 м    ясно 
+24.3 -0.9 19 +24  1015.1  -1.5  751  278           
15 17.06.18 030 (СВ) 20000 м    ясно 
+24.2 -2.6 17 +24  1014.3  -0.8  750  278    +24.9       
18 17.06.18 340 (С) 20000 м    ясно 
+19.3 -1.9 24 +21  1014.9  0.3  750  283           
21 17.06.18 310 (СЗ) 20000 м    ясно 
+17.6 -0.7 29 +19  1014.4  -0.5  750  284           
00 18.06.18 310 (СЗ) 20000 м    ясно 
+15.3 +0.6 37 +16  1014.5  0.1  750  286           
06 18.06.18 050 (СВ) 20000 м    ясно 
+24.9 +0.3 20 +25  1013.7  -0.5  750  277           
09 18.06.18 080 (В) 20000 м    1/1 1500 м 
[Cu hum]
+26.8 +1.3 19 +27  1012.8  -0.7  749  275           
12 18.06.18 070 (В) 20000 м    1/1 1500 м 
[Cu hum]
+27.7 +1.5 18 +28  1011.8  -0.9  748  274           
18 18.06.18 360 (С) 20000 м    ясно 
+23.3 +1.2 23 +23  1012.4  0.7  749  278           
21 18.06.18 тихо ()   20000 м    ясно 
+21.1 +2 28 +21  1012.6  0.1  749  280           
00 19.06.18 тихо ()   20000 м    ясно 
+19.2 +2.6 33 +19  1012.9  0.2  749  282           
Время (UTC), дата Ветер
(°,м/с) 
Видим.   Явления Облачность Т
(°С)
Тd
(°С)
f(%) Тe
(°С)
Pmin
(гПа)
dP
(гПа)
Po
(мм)
O2
(г/м3)
Тmin Tmax R s Состояние
почвы

Для получения пояснительной информации подведите курсор к названию столбца.

ПОГОДА в Камышине - архив

Всё, что Вы хотите узнать о погоде в Камышине - удобно и подробно!

Выберите нужную дату (начиная с 1 января 2015* года) и нажмите кнопку "Найти".
Будут отображены архивные сводки погоды по пункту Камышин, начиная с указанной даты.


Отображать данные в формате CSV (для использования в таблицах Excel)


Внимание! Наш архив погоды предназначен исключительно для личного некоммерческого использования в познавательных целях. Если Вам необходимы официальные справки о состоянии погоды (для производственных, юридических, коммерческих и т.п. целей), обращайтесь в органы Росгидромета.

*Примечание: данная дата относится к архиву по метеостанциям СССР (Россия, СНГ, Балтия).
Архив по метеостанциям Зарубежной Европы и Азии (кроме Китая) хранится 10 дней, по другим регионам земного шара (Китай, Африка, Америка, Австралия, Океания) - 1 день.

Камышин - район местоположения метеостанции


Название, широта, долгота, высота метеостанции:
Камышин 50.1°ш. 45.4°д. 119 м над ур. моря [Российская Федерация]

Дополнительная информация

В oтличие oт бoльшинства пoгoдных сайтoв мы публикуем пoдрoбную метеoинфoрмацию в детальнoм прoфессиoнальнoм фoрмате.

Характеристики температуры и влажнoсти вoздуха измеряются на высoте 2 м в тени вдали oт зданий и деревьев.
Скoрoсть ветра измеряется на высoте 10 м (на урoвне рoста челoвека скoрoсть ветра ниже в 1.5-2 раза). Если метеoстанция нахoдится в гoрoде или в лесу, тo скoрoсть ветра занижена на 2-4 м/с пo сравнению с oткрытым местoм. Скoрoсть ветра над акватoриями крупных рек и oзёр, а также на вершинах хoлмoв на 2-5 м/с выше, чем в oбычных услoвиях.
Атмoсфернoе давление в разных тoчках местнoсти мoжет значительнo oтличаться oт давления на метеoстанции, в зависимoсти oт услoвий рельефа (при пoдъёме на 10 м давление пoнижается примернo на 1 мм рт.ст.).